Wind_Speed
32 32 32 32 32 33 33 33 34 36 36 37 36 36 36 37 37 37 38 38 39 39 39 38 39 39 39 38 38 38 38 38 38 38 38 38 37 37 37 37 37 37 37 37
32 32 31 32 32 33 33 33 33 35 36 37 37 37 37 37 37 37 37 38 39 39 39 39 39 39 40 39 39 39 40 40 40 40 40 40 39 39 39 38 38 38 38 38
31 31 31 32 32 33 33 33 34 34 35 36 37 37 36 36 37 37 37 37 37 38 39 39 39 39 39 39 39 39 39 40 40 40 40 40 40 41 40 40 40 40 40 40
31 31 32 32 33 33 34 34 34 35 35 36 36 37 35 35 35 35 36 36 36 37 38 38 39 39 40 40 40 39 40 40 40 41 41 41 41 41 42 42 42 42 42 42
32 31 32 32 32 33 33 34 34 35 36 37 37 38 35 35 34 35 35 36 37 37 38 39 40 40 40 41 41 41 41 41 40 41 41 41 42 42 43 44 45 44 43 44
31 32 32 32 32 33 33 34 34 35 35 37 35 37 36 35 34 34 35 36 37 37 38 39 39 40 41 42 42 42 42 42 42 41 42 42 42 43 43 44 45 46 45 44
31 31 32 31 32 33 33 34 35 35 36 36 35 37 36 34 34 34 35 37 38 38 38 39 39 40 41 42 43 43 43 42 43 43 43 43 43 44 44 45 45 46 46 46
30 30 31 31 31 31 32 33 34 35 36 35 35 36 35 33 33 34 35 36 37 38 38 39 40 41 41 42 43 43 43 43 43 43 44 45 45 44 45 45 45 45 46 46
29 29 29 30 31 31 32 32 33 34 36 35 35 35 35 33 34 34 35 36 37 37 38 38 38 39 41 42 42 42 43 43 44 44 44 45 45 45 45 45 45 45 46 47
27 27 27 28 30 31 31 31 32 33 35 36 36 35 33 33 33 34 35 36 36 37 37 38 38 39 40 42 42 43 43 43 44 45 46 46 46 46 46 46 46 46 46 47
27 27 26 27 29 30 30 30 32 33 34 35 35 33 32 32 33 33 33 34 34 35 36 38 39 39 40 41 42 43 44 44 45 46 46 47 46 46 46 45 46 46 46 46
26 27 26 26 27 28 29 29 30 32 33 34 35 34 32 31 30 31 32 32 33 34 36 37 38 39 40 40 41 42 43 44 44 45 45 46 46 46 45 45 45 45 46 46
26 27 26 26 27 27 28 28 30 31 32 33 33 32 31 31 30 30 30 31 31 33 34 36 37 38 39 40 41 41 42 43 43 43 43 44 45 45 45 45 46 46 46 47
27 28 27 26 26 27 28 28 29 31 32 32 31 29 29 29 29 29 30 30 30 31 33 34 36 37 38 39 40 41 41 42 42 43 43 44 44 45 45 46 46 47 47 47
27 27 27 27 27 28 29 28 29 31 31 32 29 28 27 29 30 30 30 30 30 31 32 33 35 36 37 38 39 40 40 40 41 41 42 43 43 43 44 44 45 46 46 47
27 27 27 28 28 29 29 28 28 29 29 30 29 27 26 28 29 29 29 30 30 31 32 33 34 35 36 37 37 38 38 39 39 40 41 42 43 43 43 43 43 44 45 45
25 26 28 28 28 29 28 27 28 28 28 29 29 27 27 28 28 29 29 29 30 30 31 32 33 34 35 36 37 37 37 38 38 40 41 41 41 41 42 43 43 43 43 44
26 25 26 27 27 28 26 26 26 27 27 28 28 28 29 30 30 30 30 30 30 31 31 32 32 33 34 35 35 36 37 37 38 38 39 39 40 40 41 41 42 42 42 43
26 26 26 27 27 27 25 24 25 26 27 27 28 28 29 30 31 31 31 31 31 31 32 32 33 33 33 33 34 35 36 37 37 37 38 38 39 40 40 40 41 42 42 43
25 26 26 26 27 26 24 24 25 27 28 27 28 28 29 30 31 31 32 33 33 33 33 33 33 33 33 33 34 34 35 36 37 38 38 38 38 39 39 40 40 41 41 41
25 25 26 26 26 25 24 24 25 26 26 27 28 29 30 30 31 32 32 33 34 34 34 34 34 34 33 33 34 34 35 36 37 38 38 38 38 38 38 38 39 39 38 38
26 26 26 26 25 24 24 24 24 25 26 26 27 29 30 31 32 32 33 34 34 34 34 34 35 34 34 34 34 35 35 35 36 37 37 37 37 38 38 38 38 38 38 37
26 27 27 27 26 25 25 25 25 25 26 27 28 28 29 31 32 32 33 34 34 34 33 33 33 33 34 34 35 35 35 35 35 36 37 37 37 37 37 37 37 37 37 37
25 26 27 27 26 26 27 26 26 27 27 28 28 29 30 30 30 31 31 32 32 33 33 33 33 33 33 34 34 34 35 35 35 35 36 36 36 36 36 36 37 36 36 36
26 26 26 26 26 27 27 27 27 28 28 28 28 29 29 30 30 30 30 31 31 31 31 32 32 33 33 34 34 34 34 34 34 34 35 35 35 35 35 35 35 35 35 35
26 25 25 25 25 26 26 26 26 27 27 28 28 28 29 29 29 30 30 31 30 30 30 31 31 32 32 33 33 33 33 33 33 34 34 34 34 34 34 34 34 34 34 34
Wind_Direction
256 257 258 257 257 256 255 254 253 252 252 253 253 252 250 250 249 248 247 247 246 246 246 247 246 246 246 246 247 248 249 251 253 254 256 258 261 263 264 264 265 266 267 268
257 258 257 256 256 254 254 255 255 254 254 254 253 252 250 250 250 248 247 247 246 246 246 246 247 246 247 247 248 249 250 252 254 255 256 258 261 263 264 265 266 267 267 269
257 257 256 256 256 255 254 254 255 256 255 254 254 252 250 249 250 249 247 246 245 245 245 246 246 246 247 248 248 249 250 252 254 256 257 258 260 262 264 265 267 268 268 269
259 257 256 257 257 256 254 254 254 255 256 255 255 255 250 249 249 248 247 246 246 246 246 246 247 247 248 248 248 250 252 254 255 256 257 259 261 262 263 265 266 268 269 270
263 261 259 258 257 256 255 254 254 255 256 255 254 255 252 251 248 248 248 247 247 246 246 247 248 248 249 248 248 250 253 255 256 258 259 261 263 264 265 266 266 267 269 269
262 261 260 258 257 256 254 253 254 254 255 254 253 255 253 252 251 249 249 248 248 248 248 248 249 249 249 249 250 252 254 255 257 258 260 262 263 265 266 267 267 267 268 269
261 259 258 257 256 255 253 252 253 254 254 255 255 256 255 254 253 251 251 250 250 250 250 250 250 249 250 251 252 253 255 256 257 259 261 263 264 266 267 267 267 268 268 268
263 259 257 255 255 254 253 252 253 255 257 257 256 256 256 256 254 253 253 253 253 252 252 252 252 251 251 252 253 253 254 256 258 260 262 264 265 266 267 267 268 268 269 269
262 261 258 256 254 253 251 252 253 255 256 258 258 258 257 257 257 256 255 255 254 254 253 253 254 253 252 252 254 255 256 257 259 261 263 265 266 266 267 268 269 269 269 270
259 261 258 256 254 253 253 253 253 255 258 260 260 260 261 260 260 259 258 257 256 255 255 254 254 254 254 255 256 257 258 260 261 262 263 264 265 266 267 268 268 268 269 270
257 258 258 256 254 254 254 253 253 255 257 260 262 261 262 262 262 261 260 259 257 256 255 256 256 256 256 257 258 259 260 262 263 264 265 265 265 266 267 268 267 268 269 270
255 256 255 255 254 254 254 255 255 256 258 260 263 263 262 264 264 263 262 261 259 258 257 257 257 257 257 258 260 261 262 263 264 265 266 266 266 266 266 267 267 268 269 270
253 254 254 254 254 254 254 255 256 256 258 260 263 264 262 262 264 263 262 262 262 260 259 258 259 259 260 260 261 262 264 265 265 265 266 266 265 266 267 267 268 269 270 270
254 254 254 258 259 258 256 256 257 257 257 260 263 264 261 261 263 263 263 263 264 263 262 261 261 262 262 262 263 264 264 264 265 266 266 266 266 266 267 268 268 269 270 271
254 255 257 259 261 260 259 259 260 259 258 261 263 261 260 260 261 263 263 263 264 265 264 264 264 264 264 264 264 264 265 265 266 266 266 266 267 267 268 268 268 269 270 270
254 256 258 261 263 263 261 261 261 260 259 261 262 260 260 260 262 263 264 264 264 266 266 266 266 265 266 265 265 264 265 266 267 268 268 268 268 268 268 268 269 270 270 271
256 259 261 262 263 264 263 264 262 262 262 263 263 262 259 261 264 265 266 266 266 267 268 267 267 267 266 265 265 265 266 267 268 268 269 269 269 268 268 269 270 271 271 272
257 260 262 263 263 264 266 264 262 262 262 263 263 262 263 264 265 267 269 269 269 269 269 270 270 270 268 267 266 266 266 267 269 270 270 269 269 270 270 270 271 272 272 273
257 259 263 266 267 267 265 266 265 264 264 265 265 265 265 266 267 269 270 271 271 271 271 272 272 271 270 269 267 267 268 268 269 271 271 271 270 270 270 271 272 273 273 274
257 259 263 266 269 269 269 267 267 267 266 266 267 267 268 270 270 271 271 271 271 271 272 272 272 271 270 269 269 270 270 270 270 271 272 272 272 272 272 272 273 274 274 274
257 258 262 265 267 269 271 271 270 270 271 269 269 269 269 270 271 272 272 272 271 270 270 270 270 270 269 269 270 271 272 272 272 272 272 272 273 273 273 274 275 275 274 275
257 259 263 265 268 271 273 273 272 274 274 273 271 270 270 271 272 272 273 272 271 270 270 270 270 269 268 268 270 271 273 274 274 274 273 273 273 274 274 274 275 275 275 276
259 261 263 264 268 271 273 274 273 273 273 274 273 272 273 273 273 273 272 271 270 270 270 270 270 269 269 269 270 271 273 274 275 275 275 274 274 274 274 274 275 275 276 276
261 261 263 264 265 269 271 272 272 272 273 273 273 272 273 274 273 274 274 271 270 271 270 270 270 269 269 269 270 271 272 274 275 276 276 275 274 274 274 275 274 275 275 275
263 264 265 265 267 269 271 273 272 272 273 274 274 276 276 276 275 274 273 272 271 271 271 271 271 270 269 270 271 272 273 274 275 275 276 275 275 274 275 275 275 275 275 275
263 265 266 267 268 269 270 272 274 274 274 275 275 276 277 276 276 275 274 273 272 272 272 272 272 272 271 271 272 273 273 274 274 275 275 275 274 274 274 275 275 276 276 276
Height
5688 5691 5691 5693 5694 5695 5696 5698 5700 5702 5702 5704 5706 5709 5711 5713 5715 5718 5721 5724 5727 5730 5732 5735 5737 5739 5742 5745 5747 5749 5751 5753 5755 5757 5759 5760 5761 5762 5763 5763 5763 5764 5765 5765
5681 5682 5684 5684 5685 5686 5688 5690 5691 5693 5694 5695 5697 5700 5702 5704 5707 5710 5712 5715 5718 5721 5723 5726 5729 5731 5733 5736 5738 5740 5742 5744 5746 5748 5750 5751 5752 5753 5753 5754 5754 5755 5756 5756
5672 5675 5675 5676 5677 5679 5680 5682 5683 5684 5685 5686 5688 5691 5694 5696 5698 5701 5704 5706 5709 5712 5715 5717 5719 5722 5724 5727 5729 5731 5734 5735 5737 5738 5740 5741 5742 5743 5744 5744 5745 5746 5746 5746
5663 5665 5666 5668 5669 5670 5672 5674 5674 5675 5676 5677 5679 5680 5686 5688 5690 5693 5696 5698 5701 5703 5705 5708 5710 5713 5715 5718 5720 5722 5724 5726 5727 5729 5730 5731 5733 5733 5734 5735 5735 5736 5736 5736
5655 5657 5658 5659 5661 5662 5664 5665 5666 5667 5667 5668 5670 5671 5677 5679 5682 5685 5688 5690 5692 5694 5697 5699 5701 5704 5706 5708 5711 5713 5714 5716 5718 5719 5720 5721 5723 5723 5724 5724 5725 5725 5725 5725
5648 5648 5649 5651 5653 5654 5655 5657 5657 5658 5658 5659 5663 5663 5667 5672 5675 5678 5680 5682 5684 5686 5688 5690 5692 5694 5697 5699 5701 5703 5704 5706 5707 5709 5710 5711 5712 5713 5713 5713 5713 5714 5714 5713
5640 5641 5642 5643 5645 5646 5647 5649 5649 5649 5649 5652 5656 5655 5660 5665 5667 5669 5671 5673 5675 5677 5679 5681 5683 5685 5687 5689 5691 5693 5694 5696 5697 5699 5700 5701 5702 5702 5702 5702 5702 5702 5702 5702
5631 5633 5635 5635 5637 5638 5639 5641 5642 5642 5643 5645 5647 5648 5653 5656 5658 5660 5662 5664 5666 5668 5669 5671 5673 5675 5677 5679 5681 5683 5684 5685 5687 5688 5689 5690 5690 5691 5691 5691 5691 5691 5691 5691
5624 5626 5627 5628 5629 5631 5632 5633 5635 5635 5635 5637 5638 5641 5645 5648 5650 5652 5653 5655 5656 5658 5660 5662 5663 5665 5667 5669 5670 5672 5674 5675 5676 5677 5678 5678 5679 5679 5679 5679 5679 5679 5679 5679
5617 5618 5620 5621 5622 5623 5625 5626 5627 5627 5628 5628 5631 5634 5638 5640 5642 5643 5645 5646 5647 5649 5650 5652 5653 5655 5657 5658 5660 5662 5663 5664 5665 5666 5666 5667 5667 5667 5667 5668 5668 5668 5667 5667
5610 5611 5613 5614 5615 5616 5618 5620 5619 5620 5621 5622 5623 5630 5631 5632 5633 5635 5636 5636 5638 5639 5641 5642 5643 5645 5647 5648 5650 5651 5652 5653 5654 5654 5655 5655 5655 5656 5656 5656 5656 5656 5655 5655
5603 5604 5605 5607 5608 5609 5610 5612 5613 5614 5614 5615 5616 5622 5623 5624 5625 5626 5627 5628 5629 5630 5631 5632 5634 5635 5637 5638 5639 5641 5641 5642 5642 5643 5643 5643 5643 5644 5644 5644 5644 5644 5644 5643
5596 5597 5598 5600 5603 5603 5603 5605 5606 5606 5607 5607 5609 5615 5615 5616 5617 5618 5619 5620 5620 5621 5622 5623 5624 5626 5627 5628 5629 5630 5630 5631 5631 5631 5632 5632 5632 5632 5632 5632 5632 5632 5632 5631
5589 5590 5592 5594 5595 5596 5597 5598 5598 5598 5599 5600 5603 5606 5608 5608 5609 5610 5611 5611 5612 5613 5613 5614 5615 5616 5617 5618 5619 5619 5619 5620 5620 5620 5620 5621 5621 5621 5621 5621 5621 5621 5620 5620
5582 5584 5585 5586 5587 5588 5589 5590 5591 5591 5592 5593 5596 5598 5600 5600 5601 5602 5602 5603 5604 5604 5605 5605 5606 5607 5607 5608 5608 5609 5609 5609 5609 5609 5609 5609 5609 5609 5609 5609 5608 5608 5608 5608
5575 5577 5578 5579 5580 5580 5581 5583 5583 5584 5585 5586 5588 5591 5592 5592 5593 5593 5594 5595 5595 5596 5596 5596 5597 5597 5597 5598 5598 5598 5599 5599 5599 5598 5598 5598 5598 5598 5597 5597 5596 5596 5596 5596
5569 5571 5572 5573 5573 5573 5575 5577 5577 5578 5579 5580 5581 5584 5584 5585 5585 5586 5586 5586 5586 5587 5587 5587 5587 5587 5587 5588 5588 5589 5589 5588 5588 5588 5587 5587 5586 5586 5586 5585 5585 5585 5584 5584
5563 5564 5564 5565 5567 5566 5572 5570 5571 5571 5572 5573 5574 5576 5576 5577 5577 5578 5578 5578 5578 5578 5578 5578 5578 5578 5578 5578 5578 5578 5578 5578 5578 5577 5576 5576 5575 5575 5575 5574 5574 5573 5573 5573
5557 5558 5558 5559 5558 5560 5563 5564 5564 5564 5565 5566 5567 5568 5568 5568 5569 5570 5570 5569 5569 5569 5569 5569 5569 5569 5568 5568 5568 5568 5568 5568 5567 5566 5566 5565 5564 5564 5564 5563 5563 5562 5562 5561
5550 5551 5552 5552 5552 5553 5558 5557 5556 5557 5558 5560 5559 5559 5559 5559 5561 5562 5560 5560 5560 5560 5560 5559 5559 5559 5558 5558 5558 5558 5558 5557 5556 5556 5555 5554 5554 5553 5553 5552 5552 5551 5551 5550
5544 5545 5545 5546 5545 5547 5550 5550 5549 5551 5553 5551 5551 5551 5551 5551 5551 5552 5551 5551 5550 5550 5550 5549 5549 5549 5549 5548 5548 5548 5547 5547 5546 5545 5545 5544 5543 5543 5542 5542 5541 5540 5540 5539
5537 5538 5539 5539 5539 5544 5543 5542 5543 5543 5543 5542 5542 5542 5542 5542 5542 5541 5541 5541 5540 5540 5540 5539 5539 5539 5538 5538 5538 5538 5537 5536 5535 5535 5534 5533 5533 5532 5532 5531 5530 5530 5529 5529
5531 5532 5532 5533 5536 5536 5535 5535 5535 5534 5534 5534 5534 5533 5533 5533 5532 5532 5532 5531 5531 5530 5530 5529 5529 5529 5528 5528 5528 5528 5527 5526 5525 5524 5523 5523 5522 5522 5521 5521 5520 5519 5519 5518
5524 5524 5525 5526 5527 5527 5527 5527 5527 5526 5526 5525 5525 5525 5524 5524 5523 5522 5522 5521 5520 5520 5520 5519 5519 5519 5518 5518 5518 5517 5516 5516 5515 5514 5513 5512 5512 5511 5510 5510 5510 5509 5508 5508
5517 5517 5517 5518 5520 5520 5519 5519 5519 5518 5518 5517 5517 5516 5515 5514 5514 5513 5512 5511 5511 5510 5510 5509 5509 5509 5508 5508 5508 5507 5506 5506 5505 5504 5503 5503 5502 5501 5500 5500 5499 5499 5498 5497
5510 5511 5512 5512 5513 5512 5512 5512 5511 5511 5510 5509 5508 5507 5506 5505 5504 5503 5502 5502 5501 5501 5500 5499 5499 5499 5498 5498 5498 5497 5496 5496 5495 5494 5494 5493 5492 5491 5491 5490 5490 5488 5488 5487